Regional Weather Roundup
Issued by NWS

Home | Current Version | Previous Version | Text Only | Print | Product List | Glossary On
Versions: 1 2 3 4 5 6 7 8 9 10 11 12 13 14 15 16 17 18 19 20 21 22 23 24 25 26 27 28 29 30 31 32 33 34 35 36 37 38 39 40 41 42 43 44 45 46 47 48 49 50
000
ASUS45 KABQ 251910
RWRNM
NEW MEXICO REGIONAL WEATHER ROUNDUP
NATIONAL WEATHER SERVICE ALBUQUERQUE NM
100 PM MDT SUN JUN 25 2017

NOTE: "FAIR" MEANS FEW OR NO CLOUDS BELOW 12,000 FEET AGL WITH NO
       SIGNIFICANT WEATHER OR OBSTRUCTIONS TO VISION.

      THIS PRODUCT IS RELEASED AS TWO VERSIONS.  ONE VERSION NEAR
      THE TOP OF THE HOUR CONTAINING PRELIMINARY DATA FROM ALBUQUERQUE
      AND OTHER STATIONS.  A FINAL VERSION WITH ADDITIONAL DATA IS
      ISSUED ABOUT 10 MINUTES AFTER THE HOUR.

NMZ501-503-504-510>518-252000-
NORTHWEST PLATEAU/NORTHCENTRAL MOUNTAINS

CITY           SKY/WX    TMP DP  RH WIND       PRES   REMARKS
FARMINGTON     FAIR      86  43  22 E5        30.22F
LOS ALAMOS     FAIR      75  51  43 S14G26    30.39F
SANTA FE       FAIR      81  53  37 VRB7      30.33F
TAOS           FAIR      77  46  33 SW13        N/A
ANGEL FIRE     FAIR      70  49  46 W10G22    30.47F

$$
NMZ402-403-502-505>509-252000-
WESTCENTRAL MOUNTAINS/SOUTHWEST MOUNTAINS

CITY           SKY/WX    TMP DP  RH WIND       PRES   REMARKS
GALLUP         FAIR      91  38  15 W20G26    30.29F
GRANTS         FAIR      83  42  23 SE7       30.32F
SILVER CITY    FAIR      81  52  36 SE9       30.30F

$$
NMZ407-409-411-412-252000-
SOUTHERN DESERTS

CITY           SKY/WX    TMP DP  RH WIND       PRES   REMARKS
DEMING         FAIR      86  57  37 SW7       30.23F
LAS CRUCES     FAIR      89  54  30 S10       30.25F
HOLLOMAN AFB   FAIR      90  56  32 S8        30.21F
ALAMOGORDO     FAIR      90  54  29 SW7G20    30.21F
T OR C         FAIR      88  51  28 SE6       30.23F

$$
NMZ519>523-252000-
CENTRAL VALLEYS/CENTRAL HIGHLANDS

CITY           SKY/WX    TMP DP  RH WIND       PRES   REMARKS
ALBUQUERQUE    PTSUNNY   84  50  30 SW14G20   30.26F
DOUBLE EAGLE   MOSUNNY   86  48  26 S8G17     30.30F
MORIARTY ARPT  FAIR      85  51  31 S8G17     30.34F
CLINES CORNERS PTSUNNY   80  50  34 S12G21    30.41F
BELEN          FAIR      87  47  25 S3G17     30.25F
SOCORRO        FAIR      89  50  26 S14G23    30.23F

$$
NMZ524>526-539-540-252000-
SOUTHCENTRAL MOUNTAINS

CITY           SKY/WX    TMP DP  RH WIND       PRES   REMARKS
RUIDOSO        FAIR      77  57  50 SE16      30.43F

$$
NMZ527>531-252000-
NORTHEAST HIGHLANDS/NORTHEAST PLAINS

CITY           SKY/WX    TMP DP  RH WIND       PRES   REMARKS
LAS VEGAS      FAIR      75  55  49 S23G35    30.38F
RATON          PTSUNNY   73  57  57 S16       30.34F
CLAYTON        CLOUDY    67  62  84 SW12      30.32F

$$
NMZ532>537-252000-
EASTCENTRAL PLAINS

CITY           SKY/WX    TMP DP  RH WIND       PRES   REMARKS
SANTA ROSA     MOCLDY    77  60  56 S18       30.30F
TUCUMCARI      PTSUNNY   79  64  60 S16       30.26F
CANNON AFB     CLOUDY    71  69  93 S14       30.33F
CLOVIS AIRPORT CLOUDY    76  64  66 SW15      30.32F

$$
NMZ028-029-538-252000-
SOUTHEAST PLAINS

CITY           SKY/WX    TMP DP  RH WIND       PRES   REMARKS
ROSWELL        PTSUNNY   86  60  41 S15G24    30.24F
ARTESIA        FAIR      86  61  42 SE17G23   30.23F
CARLSBAD       FAIR      88  62  41 SE12G22   30.21F
HOBBS          PTSUNNY   81  63  54 SE9       30.29F


$$




USA.gov is the U.S. government's official web portal to all federal, state and local government web resources and services.